Tracking 30696 objects as of 16-Jun-2025
HD Live streaming from Space Station
objects crossing your sky now

ANIK E2

Track ANIK E2 now!
ANIK E2 is classified as:


NORAD ID: 21222
Int'l Code: 1991-026A
Perigee: 36,092.8 km
Apogee: 36,140.8 km
Inclination: 13.8 °
Period: 1,452.6 minutes
Semi major axis: 42487 km
RCS: 12.1056 m2 (large)
Launch date: April 4, 1991
Source: Canada (CA)
Launch site: FRENCH GUIANA (FRGUI)

Inclined orbit; Anik is Inuit for "Little Brother"; 24 C-band, 16 Ku-band transponders.
Your satellite tracking list
Your tracking list is empty




NASA's NSSDC Master Catalog

Two Line Element Set (TLE):
1 21222U 91026A   25166.29424427 -.00000092  00000-0  00000-0 0  9993
2 21222  13.7855  15.0502 0005652  55.1280 315.3999  0.99130449113432
Source of the keplerian elements: AFSPC